owner,sensor,date,latitude,longitude,relative_humidity,qcFlag 
COMPS,ioos:station:USF.COMPS:C10:1,2014-08-01T01:05:00Z,27.1690,-82.9260,61.17,1111122 
COMPS,ioos:station:USF.COMPS:C10:1,2014-08-01T01:35:00Z,27.1690,-82.9260,60.95,1111122 
COMPS,ioos:station:USF.COMPS:C10:1,2014-08-01T02:05:00Z,27.1690,-82.9260,60.2,1111122 
COMPS,ioos:station:USF.COMPS:C10:1,2014-08-01T02:35:00Z,27.1690,-82.9260,59.86,1111122 
COMPS,ioos:station:USF.COMPS:C10:1,2014-08-01T03:05:00Z,27.1690,-82.9260,57.91,1111122 
COMPS,ioos:station:USF.COMPS:C10:1,2014-08-01T03:35:00Z,27.1690,-82.9260,58.98,1111122 
COMPS,ioos:station:USF.COMPS:C10:1,2014-08-01T04:05:00Z,27.1690,-82.9260,60.42,1111122 
COMPS,ioos:station:USF.COMPS:C10:1,2014-08-01T04:35:00Z,27.1690,-82.9260,58.5,1111122 
COMPS,ioos:station:USF.COMPS:C10:1,2014-08-01T05:05:00Z,27.1690,-82.9260,57.19,1111122 
COMPS,ioos:station:USF.COMPS:C10:1,2014-08-01T05:35:00Z,27.1690,-82.9260,59.55,1111122 
COMPS,ioos:station:USF.COMPS:C10:1,2014-08-01T06:05:00Z,27.1690,-82.9260,59.97,1111122 
COMPS,ioos:station:USF.COMPS:C10:1,2014-08-01T06:35:00Z,27.1690,-82.9260,58.42,1111122 
COMPS,ioos:station:USF.COMPS:C10:1,2014-08-01T07:05:00Z,27.1690,-82.9260,60.37,1111122 
COMPS,ioos:station:USF.COMPS:C10:1,2014-08-01T07:35:00Z,27.1690,-82.9260,60.1,1111122 
COMPS,ioos:station:USF.COMPS:C10:1,2014-08-01T08:05:00Z,27.1690,-82.9260,60.92,1111122 
COMPS,ioos:station:USF.COMPS:C10:1,2014-08-01T08:35:00Z,27.1690,-82.9260,60.2,1111122 
COMPS,ioos:station:USF.COMPS:C10:1,2014-08-01T09:05:00Z,27.1690,-82.9260,61.33,1111122 
COMPS,ioos:station:USF.COMPS:C10:1,2014-08-01T09:35:00Z,27.1690,-82.9260,60.71,1111122 
COMPS,ioos:station:USF.COMPS:C10:1,2014-08-01T10:05:00Z,27.1690,-82.9260,61.21,1111122 
COMPS,ioos:station:USF.COMPS:C10:1,2014-08-01T10:35:00Z,27.1690,-82.9260,60.61,1111122 
COMPS,ioos:station:USF.COMPS:C10:1,2014-08-01T11:05:00Z,27.1690,-82.9260,60.25,1111122 
COMPS,ioos:station:USF.COMPS:C10:1,2014-08-01T11:35:00Z,27.1690,-82.9260,59.22,1111122 
COMPS,ioos:station:USF.COMPS:C10:1,2014-08-01T12:05:00Z,27.1690,-82.9260,57.46,1111122 
COMPS,ioos:station:USF.COMPS:C10:1,2014-08-01T12:35:00Z,27.1690,-82.9260,59.54,1111122 
COMPS,ioos:station:USF.COMPS:C10:1,2014-08-01T13:05:00Z,27.1690,-82.9260,56.41,1111122 
COMPS,ioos:station:USF.COMPS:C10:1,2014-08-01T13:35:00Z,27.1690,-82.9260,59.03,1111122 
COMPS,ioos:station:USF.COMPS:C10:1,2014-08-01T14:05:00Z,27.1690,-82.9260,59.19,1111122 
COMPS,ioos:station:USF.COMPS:C10:1,2014-08-01T14:35:00Z,27.1690,-82.9260,59.15,1111122 
COMPS,ioos:station:USF.COMPS:C10:1,2014-08-01T15:05:00Z,27.1690,-82.9260,62.68,1111122 
COMPS,ioos:station:USF.COMPS:C10:1,2014-08-01T15:35:00Z,27.1690,-82.9260,62.65,1111122 
COMPS,ioos:station:USF.COMPS:C10:1,2014-08-01T16:05:00Z,27.1690,-82.9260,65.0,1111122 
COMPS,ioos:station:USF.COMPS:C10:1,2014-08-01T16:35:00Z,27.1690,-82.9260,66.13,1111122 
COMPS,ioos:station:USF.COMPS:C10:1,2014-08-01T17:05:00Z,27.1690,-82.9260,64.54,1111122 
COMPS,ioos:station:USF.COMPS:C10:1,2014-08-01T17:35:00Z,27.1690,-82.9260,64.54,1111122 
COMPS,ioos:station:USF.COMPS:C10:1,2014-08-01T18:05:00Z,27.1690,-82.9260,63.49,1111122 
COMPS,ioos:station:USF.COMPS:C10:1,2014-08-01T18:35:00Z,27.1690,-82.9260,63.32,1111122 
COMPS,ioos:station:USF.COMPS:C10:1,2014-08-01T19:05:00Z,27.1690,-82.9260,63.15,1111122 
COMPS,ioos:station:USF.COMPS:C10:1,2014-08-01T19:35:00Z,27.1690,-82.9260,61.1,1111122 
COMPS,ioos:station:USF.COMPS:C10:1,2014-08-01T20:05:00Z,27.1690,-82.9260,58.88,1111122 
COMPS,ioos:station:USF.COMPS:C10:1,2014-08-01T20:35:00Z,27.1690,-82.9260,60.94,1111122 
COMPS,ioos:station:USF.COMPS:C10:1,2014-08-01T21:05:00Z,27.1690,-82.9260,58.41,1111122 
COMPS,ioos:station:USF.COMPS:C10:1,2014-08-01T21:35:00Z,27.1690,-82.9260,62.5,1111122 
COMPS,ioos:station:USF.COMPS:C10:1,2014-08-01T22:05:00Z,27.1690,-82.9260,58.65,1111122 
COMPS,ioos:station:USF.COMPS:C10:1,2014-08-01T22:35:00Z,27.1690,-82.9260,58.03,1111122 
COMPS,ioos:station:USF.COMPS:C10:1,2014-08-01T23:05:00Z,27.1690,-82.9260,60.68,1111122 
COMPS,ioos:station:USF.COMPS:C10:1,2014-08-01T23:35:00Z,27.1690,-82.9260,61.95,1111122 
COMPS,ioos:station:USF.COMPS:C10:1,2014-08-02T00:05:00Z,27.1690,-82.9260,61.43,1111122 
COMPS,ioos:station:USF.COMPS:C10:1,2014-08-02T00:35:00Z,27.1690,-82.9260,63.09,1111122 
COMPS,ioos:station:USF.COMPS:C10:1,2014-08-02T02:05:00Z,27.1690,-82.9260,63.62,1111122 
COMPS,ioos:station:USF.COMPS:C10:1,2014-08-02T02:35:00Z,27.1690,-82.9260,63.33,1111122 
COMPS,ioos:station:USF.COMPS:C10:1,2014-08-02T03:05:00Z,27.1690,-82.9260,62.83,1111122 
COMPS,ioos:station:USF.COMPS:C10:1,2014-08-02T03:35:00Z,27.1690,-82.9260,63.99,1111122 
COMPS,ioos:station:USF.COMPS:C10:1,2014-08-02T04:05:00Z,27.1690,-82.9260,65.44,1111122 
COMPS,ioos:station:USF.COMPS:C10:1,2014-08-02T04:35:00Z,27.1690,-82.9260,64.85,1111122 
COMPS,ioos:station:USF.COMPS:C10:1,2014-08-02T05:05:00Z,27.1690,-82.9260,66.97,1111122 
COMPS,ioos:station:USF.COMPS:C10:1,2014-08-02T05:35:00Z,27.1690,-82.9260,67.99,1111122 
COMPS,ioos:station:USF.COMPS:C10:1,2014-08-02T06:05:00Z,27.1690,-82.9260,68.71,1111122 
COMPS,ioos:station:USF.COMPS:C10:1,2014-08-02T06:35:00Z,27.1690,-82.9260,68.53,1111122 
COMPS,ioos:station:USF.COMPS:C10:1,2014-08-02T08:05:00Z,27.1690,-82.9260,69.28,1111122 
COMPS,ioos:station:USF.COMPS:C10:1,2014-08-02T08:35:00Z,27.1690,-82.9260,70.08,1111122 
COMPS,ioos:station:USF.COMPS:C10:1,2014-08-02T09:05:00Z,27.1690,-82.9260,70.27,1111122 
COMPS,ioos:station:USF.COMPS:C10:1,2014-08-02T09:35:00Z,27.1690,-82.9260,70.0,1111122 
COMPS,ioos:station:USF.COMPS:C10:1,2014-08-02T10:05:00Z,27.1690,-82.9260,71.2,1111122 
COMPS,ioos:station:USF.COMPS:C10:1,2014-08-02T10:35:00Z,27.1690,-82.9260,80.57,1111122 
COMPS,ioos:station:USF.COMPS:C10:1,2014-08-02T11:05:00Z,27.1690,-82.9260,81.35,1111122 
COMPS,ioos:station:USF.COMPS:C10:1,2014-08-02T11:35:00Z,27.1690,-82.9260,79.83,1111122 
COMPS,ioos:station:USF.COMPS:C10:1,2014-08-02T12:05:00Z,27.1690,-82.9260,77.99,1111122 
COMPS,ioos:station:USF.COMPS:C10:1,2014-08-02T12:35:00Z,27.1690,-82.9260,77.5,1111122 
COMPS,ioos:station:USF.COMPS:C10:1,2014-08-02T13:05:00Z,27.1690,-82.9260,80.23,1111122 
COMPS,ioos:station:USF.COMPS:C10:1,2014-08-02T13:35:00Z,27.1690,-82.9260,78.6,1111122 
COMPS,ioos:station:USF.COMPS:C10:1,2014-08-02T14:05:00Z,27.1690,-82.9260,76.57,1111122 
COMPS,ioos:station:USF.COMPS:C10:1,2014-08-02T14:35:00Z,27.1690,-82.9260,74.26,1111122 
COMPS,ioos:station:USF.COMPS:C10:1,2014-08-02T15:05:00Z,27.1690,-82.9260,74.8,1111122 
COMPS,ioos:station:USF.COMPS:C10:1,2014-08-02T15:35:00Z,27.1690,-82.9260,74.39,1111122 
COMPS,ioos:station:USF.COMPS:C10:1,2014-08-02T16:05:00Z,27.1690,-82.9260,73.19,1111122 
COMPS,ioos:station:USF.COMPS:C10:1,2014-08-02T16:35:00Z,27.1690,-82.9260,73.86,1111122 
COMPS,ioos:station:USF.COMPS:C10:1,2014-08-02T17:05:00Z,27.1690,-82.9260,72.15,1111122 
COMPS,ioos:station:USF.COMPS:C10:1,2014-08-02T17:35:00Z,27.1690,-82.9260,70.76,1111122 
COMPS,ioos:station:USF.COMPS:C10:1,2014-08-02T18:05:00Z,27.1690,-82.9260,69.88,1111122 
COMPS,ioos:station:USF.COMPS:C10:1,2014-08-02T18:35:00Z,27.1690,-82.9260,68.66,1111122 
COMPS,ioos:station:USF.COMPS:C10:1,2014-08-02T20:05:00Z,27.1690,-82.9260,73.96,1111122 
COMPS,ioos:station:USF.COMPS:C10:1,2014-08-02T20:35:00Z,27.1690,-82.9260,71.61,1111122 
COMPS,ioos:station:USF.COMPS:C10:1,2014-08-02T21:05:00Z,27.1690,-82.9260,71.76,1111122 
COMPS,ioos:station:USF.COMPS:C10:1,2014-08-02T21:35:00Z,27.1690,-82.9260,72.91,1111122 
COMPS,ioos:station:USF.COMPS:C10:1,2014-08-02T22:05:00Z,27.1690,-82.9260,73.32,1111122 
COMPS,ioos:station:USF.COMPS:C10:1,2014-08-02T22:35:00Z,27.1690,-82.9260,72.27,1111122 
COMPS,ioos:station:USF.COMPS:C10:1,2014-08-02T23:05:00Z,27.1690,-82.9260,74.21,1111122 
COMPS,ioos:station:USF.COMPS:C10:1,2014-08-02T23:35:00Z,27.1690,-82.9260,71.41,1111122 
COMPS,ioos:station:USF.COMPS:C10:1,2014-08-03T00:05:00Z,27.1690,-82.9260,72.15,1111122 
COMPS,ioos:station:USF.COMPS:C10:1,2014-08-03T00:35:00Z,27.1690,-82.9260,72.38,1111122 
COMPS,ioos:station:USF.COMPS:C10:1,2014-08-03T01:05:00Z,27.1690,-82.9260,72.93,1111122 
COMPS,ioos:station:USF.COMPS:C10:1,2014-08-03T01:35:00Z,27.1690,-82.9260,74.19,1111122 
COMPS,ioos:station:USF.COMPS:C10:1,2014-08-03T02:05:00Z,27.1690,-82.9260,73.5,1111122 
COMPS,ioos:station:USF.COMPS:C10:1,2014-08-03T02:35:00Z,27.1690,-82.9260,75.47,1111122 
COMPS,ioos:station:USF.COMPS:C10:1,2014-08-03T03:05:00Z,27.1690,-82.9260,87.5,1111122 
COMPS,ioos:station:USF.COMPS:C10:1,2014-08-03T03:35:00Z,27.1690,-82.9260,84.64,1111122 
COMPS,ioos:station:USF.COMPS:C10:1,2014-08-03T04:05:00Z,27.1690,-82.9260,88.03,1111122 
COMPS,ioos:station:USF.COMPS:C10:1,2014-08-03T04:35:00Z,27.1690,-82.9260,85.17,1111122 
COMPS,ioos:station:USF.COMPS:C10:1,2014-08-03T05:05:00Z,27.1690,-82.9260,81.45,1111122 
COMPS,ioos:station:USF.COMPS:C10:1,2014-08-03T05:35:00Z,27.1690,-82.9260,75.29,1111122 
COMPS,ioos:station:USF.COMPS:C10:1,2014-08-03T06:05:00Z,27.1690,-82.9260,75.89,1111122 
COMPS,ioos:station:USF.COMPS:C10:1,2014-08-03T06:35:00Z,27.1690,-82.9260,77.81,1111122 
COMPS,ioos:station:USF.COMPS:C10:1,2014-08-03T07:05:00Z,27.1690,-82.9260,79.08,1111122 
COMPS,ioos:station:USF.COMPS:C10:1,2014-08-03T07:35:00Z,27.1690,-82.9260,78.21,1111122 
COMPS,ioos:station:USF.COMPS:C10:1,2014-08-03T08:05:00Z,27.1690,-82.9260,78.56,1111122 
COMPS,ioos:station:USF.COMPS:C10:1,2014-08-03T08:35:00Z,27.1690,-82.9260,77.38,1111122 
COMPS,ioos:station:USF.COMPS:C10:1,2014-08-03T09:05:00Z,27.1690,-82.9260,77.87,1111122 
COMPS,ioos:station:USF.COMPS:C10:1,2014-08-03T09:35:00Z,27.1690,-82.9260,81.49,1111122 
COMPS,ioos:station:USF.COMPS:C10:1,2014-08-03T10:05:00Z,27.1690,-82.9260,81.24,1111122 
COMPS,ioos:station:USF.COMPS:C10:1,2014-08-03T10:35:00Z,27.1690,-82.9260,81.02,1111122 
COMPS,ioos:station:USF.COMPS:C10:1,2014-08-03T11:05:00Z,27.1690,-82.9260,80.79,1111122 
COMPS,ioos:station:USF.COMPS:C10:1,2014-08-03T11:35:00Z,27.1690,-82.9260,80.3,1111122 
COMPS,ioos:station:USF.COMPS:C10:1,2014-08-03T12:05:00Z,27.1690,-82.9260,80.25,1111122 
COMPS,ioos:station:USF.COMPS:C10:1,2014-08-03T12:35:00Z,27.1690,-82.9260,79.81,1111122 
COMPS,ioos:station:USF.COMPS:C10:1,2014-08-03T13:05:00Z,27.1690,-82.9260,79.52,1111122 
COMPS,ioos:station:USF.COMPS:C10:1,2014-08-03T13:35:00Z,27.1690,-82.9260,77.49,1111122 
COMPS,ioos:station:USF.COMPS:C10:1,2014-08-03T14:05:00Z,27.1690,-82.9260,77.76,1111122 
COMPS,ioos:station:USF.COMPS:C10:1,2014-08-03T14:35:00Z,27.1690,-82.9260,76.99,1111122 
COMPS,ioos:station:USF.COMPS:C10:1,2014-08-03T15:05:00Z,27.1690,-82.9260,76.95,1111122 
COMPS,ioos:station:USF.COMPS:C10:1,2014-08-03T15:35:00Z,27.1690,-82.9260,77.48,1111122 
COMPS,ioos:station:USF.COMPS:C10:1,2014-08-03T17:05:00Z,27.1690,-82.9260,75.22,1111122 
COMPS,ioos:station:USF.COMPS:C10:1,2014-08-03T17:35:00Z,27.1690,-82.9260,75.34,1111122 
COMPS,ioos:station:USF.COMPS:C10:1,2014-08-03T18:05:00Z,27.1690,-82.9260,75.73,1111122 
COMPS,ioos:station:USF.COMPS:C10:1,2014-08-03T18:35:00Z,27.1690,-82.9260,75.81,1111122 
COMPS,ioos:station:USF.COMPS:C10:1,2014-08-03T19:05:00Z,27.1690,-82.9260,73.45,1111122 
COMPS,ioos:station:USF.COMPS:C10:1,2014-08-03T19:35:00Z,27.1690,-82.9260,71.34,1111122 
COMPS,ioos:station:USF.COMPS:C10:1,2014-08-03T20:05:00Z,27.1690,-82.9260,74.22,1111122 
COMPS,ioos:station:USF.COMPS:C10:1,2014-08-03T20:35:00Z,27.1690,-82.9260,74.06,1111122 
COMPS,ioos:station:USF.COMPS:C10:1,2014-08-03T21:05:00Z,27.1690,-82.9260,73.94,1111122 
COMPS,ioos:station:USF.COMPS:C10:1,2014-08-03T21:35:00Z,27.1690,-82.9260,73.17,1111122 
COMPS,ioos:station:USF.COMPS:C10:1,2014-08-03T22:05:00Z,27.1690,-82.9260,71.21,1111122 
COMPS,ioos:station:USF.COMPS:C10:1,2014-08-03T22:35:00Z,27.1690,-82.9260,72.65,1111122 
COMPS,ioos:station:USF.COMPS:C10:1,2014-08-04T00:05:00Z,27.1690,-82.9260,73.67,1111122 
COMPS,ioos:station:USF.COMPS:C10:1,2014-08-04T00:35:00Z,27.1690,-82.9260,73.73,1111122 
COMPS,ioos:station:USF.COMPS:C10:1,2014-08-04T01:05:00Z,27.1690,-82.9260,73.64,1111122 
COMPS,ioos:station:USF.COMPS:C10:1,2014-08-04T01:35:00Z,27.1690,-82.9260,74.16,1111122 
COMPS,ioos:station:USF.COMPS:C10:1,2014-08-04T02:05:00Z,27.1690,-82.9260,74.42,1111122 
COMPS,ioos:station:USF.COMPS:C10:1,2014-08-04T02:35:00Z,27.1690,-82.9260,73.79,1111122 
COMPS,ioos:station:USF.COMPS:C10:1,2014-08-04T03:05:00Z,27.1690,-82.9260,74.77,1111122 
COMPS,ioos:station:USF.COMPS:C10:1,2014-08-04T03:35:00Z,27.1690,-82.9260,80.54,1111122 
COMPS,ioos:station:USF.COMPS:C10:1,2014-08-04T04:05:00Z,27.1690,-82.9260,87.14,1111122 
COMPS,ioos:station:USF.COMPS:C10:1,2014-08-04T04:35:00Z,27.1690,-82.9260,83.75,1111122 
COMPS,ioos:station:USF.COMPS:C10:1,2014-08-04T05:05:00Z,27.1690,-82.9260,84.0,1111122 
COMPS,ioos:station:USF.COMPS:C10:1,2014-08-04T05:35:00Z,27.1690,-82.9260,84.66,1111122 
COMPS,ioos:station:USF.COMPS:C10:1,2014-08-04T06:05:00Z,27.1690,-82.9260,81.14,1111122 
COMPS,ioos:station:USF.COMPS:C10:1,2014-08-04T06:35:00Z,27.1690,-82.9260,81.63,1111122 
COMPS,ioos:station:USF.COMPS:C10:1,2014-08-04T07:05:00Z,27.1690,-82.9260,81.39,1111122 
COMPS,ioos:station:USF.COMPS:C10:1,2014-08-04T07:35:00Z,27.1690,-82.9260,80.33,1111122 
COMPS,ioos:station:USF.COMPS:C10:1,2014-08-04T08:05:00Z,27.1690,-82.9260,80.11,1111122 
COMPS,ioos:station:USF.COMPS:C10:1,2014-08-04T08:35:00Z,27.1690,-82.9260,79.14,1111122 
COMPS,ioos:station:USF.COMPS:C10:1,2014-08-04T09:05:00Z,27.1690,-82.9260,78.5,1111122 
COMPS,ioos:station:USF.COMPS:C10:1,2014-08-04T09:35:00Z,27.1690,-82.9260,76.85,1111122 
COMPS,ioos:station:USF.COMPS:C10:1,2014-08-04T11:05:00Z,27.1690,-82.9260,77.18,1111122 
COMPS,ioos:station:USF.COMPS:C10:1,2014-08-04T11:35:00Z,27.1690,-82.9260,78.18,1111122 
COMPS,ioos:station:USF.COMPS:C10:1,2014-08-04T13:05:00Z,27.1690,-82.9260,76.77,1111122 
COMPS,ioos:station:USF.COMPS:C10:1,2014-08-04T13:35:00Z,27.1690,-82.9260,76.53,1111122 
COMPS,ioos:station:USF.COMPS:C10:1,2014-08-04T14:05:00Z,27.1690,-82.9260,75.36,1111122 
COMPS,ioos:station:USF.COMPS:C10:1,2014-08-04T14:35:00Z,27.1690,-82.9260,74.75,1111122 
COMPS,ioos:station:USF.COMPS:C10:1,2014-08-04T15:05:00Z,27.1690,-82.9260,77.04,1111122 
COMPS,ioos:station:USF.COMPS:C10:1,2014-08-04T15:35:00Z,27.1690,-82.9260,75.15,1111122 
COMPS,ioos:station:USF.COMPS:C10:1,2014-08-04T16:05:00Z,27.1690,-82.9260,75.65,1111122 
COMPS,ioos:station:USF.COMPS:C10:1,2014-08-04T16:35:00Z,27.1690,-82.9260,75.44,1111122 
COMPS,ioos:station:USF.COMPS:C10:1,2014-08-04T18:05:00Z,27.1690,-82.9260,83.59,1111122 
COMPS,ioos:station:USF.COMPS:C10:1,2014-08-04T18:35:00Z,27.1690,-82.9260,71.37,1111122 
COMPS,ioos:station:USF.COMPS:C10:1,2014-08-04T19:05:00Z,27.1690,-82.9260,77.1,1111122 
COMPS,ioos:station:USF.COMPS:C10:1,2014-08-04T19:35:00Z,27.1690,-82.9260,80.13,1111122 
COMPS,ioos:station:USF.COMPS:C10:1,2014-08-04T20:05:00Z,27.1690,-82.9260,86.94,1111122 
COMPS,ioos:station:USF.COMPS:C10:1,2014-08-04T20:35:00Z,27.1690,-82.9260,81.52,1111122 
COMPS,ioos:station:USF.COMPS:C10:1,2014-08-04T21:05:00Z,27.1690,-82.9260,81.13,1111122 
COMPS,ioos:station:USF.COMPS:C10:1,2014-08-04T21:35:00Z,27.1690,-82.9260,81.09,1111122 
COMPS,ioos:station:USF.COMPS:C10:1,2014-08-04T23:05:00Z,27.1690,-82.9260,74.33,1111122 
COMPS,ioos:station:USF.COMPS:C10:1,2014-08-04T23:35:00Z,27.1690,-82.9260,72.55,1111122 
COMPS,ioos:station:USF.COMPS:C10:1,2014-08-05T00:05:00Z,27.1690,-82.9260,73.56,1111122 
COMPS,ioos:station:USF.COMPS:C10:1,2014-08-05T00:35:00Z,27.1690,-82.9260,72.03,1111122 
COMPS,ioos:station:USF.COMPS:C10:1,2014-08-05T01:05:00Z,27.1690,-82.9260,74.36,1111122 
COMPS,ioos:station:USF.COMPS:C10:1,2014-08-05T01:35:00Z,27.1690,-82.9260,81.78,1111122 
COMPS,ioos:station:USF.COMPS:C10:1,2014-08-05T02:05:00Z,27.1690,-82.9260,82.1,1111122 
COMPS,ioos:station:USF.COMPS:C10:1,2014-08-05T02:35:00Z,27.1690,-82.9260,81.99,1111122 
COMPS,ioos:station:USF.COMPS:C10:1,2014-08-05T03:05:00Z,27.1690,-82.9260,77.71,1111122 
COMPS,ioos:station:USF.COMPS:C10:1,2014-08-05T03:35:00Z,27.1690,-82.9260,81.63,1111122 
COMPS,ioos:station:USF.COMPS:C10:1,2014-08-05T04:05:00Z,27.1690,-82.9260,79.18,1111122 
COMPS,ioos:station:USF.COMPS:C10:1,2014-08-05T04:35:00Z,27.1690,-82.9260,78.33,1111122 
COMPS,ioos:station:USF.COMPS:C10:1,2014-08-05T05:05:00Z,27.1690,-82.9260,79.95,1111122 
COMPS,ioos:station:USF.COMPS:C10:1,2014-08-05T05:35:00Z,27.1690,-82.9260,84.54,1111122 
COMPS,ioos:station:USF.COMPS:C10:1,2014-08-05T06:05:00Z,27.1690,-82.9260,81.93,1111122 
COMPS,ioos:station:USF.COMPS:C10:1,2014-08-05T06:35:00Z,27.1690,-82.9260,79.66,1111122 
COMPS,ioos:station:USF.COMPS:C10:1,2014-08-05T08:05:00Z,27.1690,-82.9260,80.81,1111122 
COMPS,ioos:station:USF.COMPS:C10:1,2014-08-05T08:35:00Z,27.1690,-82.9260,79.06,1111122 
COMPS,ioos:station:USF.COMPS:C10:1,2014-08-05T09:05:00Z,27.1690,-82.9260,75.35,1111122 
COMPS,ioos:station:USF.COMPS:C10:1,2014-08-05T09:35:00Z,27.1690,-82.9260,75.64,1111122 
COMPS,ioos:station:USF.COMPS:C10:1,2014-08-05T10:05:00Z,27.1690,-82.9260,75.97,1111122 
COMPS,ioos:station:USF.COMPS:C10:1,2014-08-05T10:35:00Z,27.1690,-82.9260,73.96,1111122 
COMPS,ioos:station:USF.COMPS:C10:1,2014-08-05T12:05:00Z,27.1690,-82.9260,74.33,1111122 
COMPS,ioos:station:USF.COMPS:C10:1,2014-08-05T12:35:00Z,27.1690,-82.9260,72.66,1111122 
COMPS,ioos:station:USF.COMPS:C10:1,2014-08-05T13:05:00Z,27.1690,-82.9260,70.88,1111122 
COMPS,ioos:station:USF.COMPS:C10:1,2014-08-05T13:35:00Z,27.1690,-82.9260,73.97,1111122 
COMPS,ioos:station:USF.COMPS:C10:1,2014-08-05T14:05:00Z,27.1690,-82.9260,73.81,1111122 
COMPS,ioos:station:USF.COMPS:C10:1,2014-08-05T14:35:00Z,27.1690,-82.9260,71.95,1111122 
COMPS,ioos:station:USF.COMPS:C10:1,2014-08-05T15:05:00Z,27.1690,-82.9260,72.9,1111122 
COMPS,ioos:station:USF.COMPS:C10:1,2014-08-05T15:35:00Z,27.1690,-82.9260,73.3,1111122 
COMPS,ioos:station:USF.COMPS:C10:1,2014-08-05T16:05:00Z,27.1690,-82.9260,72.55,1111122 
COMPS,ioos:station:USF.COMPS:C10:1,2014-08-05T16:35:00Z,27.1690,-82.9260,70.86,1111122 
COMPS,ioos:station:USF.COMPS:C10:1,2014-08-05T17:05:00Z,27.1690,-82.9260,72.69,1111122 
COMPS,ioos:station:USF.COMPS:C10:1,2014-08-05T17:35:00Z,27.1690,-82.9260,78.94,1111122 
COMPS,ioos:station:USF.COMPS:C10:1,2014-08-05T18:05:00Z,27.1690,-82.9260,76.88,1111122 
COMPS,ioos:station:USF.COMPS:C10:1,2014-08-05T18:35:00Z,27.1690,-82.9260,72.82,1111122 
COMPS,ioos:station:USF.COMPS:C10:1,2014-08-05T20:05:00Z,27.1690,-82.9260,76.73,1111122 
COMPS,ioos:station:USF.COMPS:C10:1,2014-08-05T20:35:00Z,27.1690,-82.9260,83.99,1111122 
COMPS,ioos:station:USF.COMPS:C10:1,2014-08-05T21:05:00Z,27.1690,-82.9260,83.37,1111122 
COMPS,ioos:station:USF.COMPS:C10:1,2014-08-05T21:35:00Z,27.1690,-82.9260,80.29,1111122 
COMPS,ioos:station:USF.COMPS:C10:1,2014-08-05T22:05:00Z,27.1690,-82.9260,81.89,1111122 
COMPS,ioos:station:USF.COMPS:C10:1,2014-08-05T22:35:00Z,27.1690,-82.9260,77.54,1111122 
COMPS,ioos:station:USF.COMPS:C10:1,2014-08-05T23:05:00Z,27.1690,-82.9260,77.78,1111122 
COMPS,ioos:station:USF.COMPS:C10:1,2014-08-05T23:35:00Z,27.1690,-82.9260,76.43,1111122 
COMPS,ioos:station:USF.COMPS:C10:1,2014-08-06T00:05:00Z,27.1690,-82.9260,74.23,1111122 
COMPS,ioos:station:USF.COMPS:C10:1,2014-08-06T00:35:00Z,27.1690,-82.9260,79.86,1111122 
COMPS,ioos:station:USF.COMPS:C10:1,2014-08-06T01:05:00Z,27.1690,-82.9260,80.26,1111122 
COMPS,ioos:station:USF.COMPS:C10:1,2014-08-06T01:35:00Z,27.1690,-82.9260,80.85,1111122 
COMPS,ioos:station:USF.COMPS:C10:1,2014-08-06T02:05:00Z,27.1690,-82.9260,80.99,1111122 
COMPS,ioos:station:USF.COMPS:C10:1,2014-08-06T02:35:00Z,27.1690,-82.9260,80.41,1111122 
COMPS,ioos:station:USF.COMPS:C10:1,2014-08-06T03:05:00Z,27.1690,-82.9260,79.77,1111122 
COMPS,ioos:station:USF.COMPS:C10:1,2014-08-06T03:35:00Z,27.1690,-82.9260,79.47,1111122 
COMPS,ioos:station:USF.COMPS:C10:1,2014-08-06T04:05:00Z,27.1690,-82.9260,80.03,1111122 
COMPS,ioos:station:USF.COMPS:C10:1,2014-08-06T04:35:00Z,27.1690,-82.9260,79.29,1111122 
COMPS,ioos:station:USF.COMPS:C10:1,2014-08-06T05:05:00Z,27.1690,-82.9260,79.18,1111122 
COMPS,ioos:station:USF.COMPS:C10:1,2014-08-06T05:35:00Z,27.1690,-82.9260,79.44,1111122 
COMPS,ioos:station:USF.COMPS:C10:1,2014-08-06T06:05:00Z,27.1690,-82.9260,79.15,1111122 
COMPS,ioos:station:USF.COMPS:C10:1,2014-08-06T06:35:00Z,27.1690,-82.9260,78.46,1111122 
COMPS,ioos:station:USF.COMPS:C10:1,2014-08-06T07:05:00Z,27.1690,-82.9260,78.7,1111122 
COMPS,ioos:station:USF.COMPS:C10:1,2014-08-06T07:35:00Z,27.1690,-82.9260,78.55,1111122 
COMPS,ioos:station:USF.COMPS:C10:1,2014-08-06T08:05:00Z,27.1690,-82.9260,77.66,1111122 
COMPS,ioos:station:USF.COMPS:C10:1,2014-08-06T08:35:00Z,27.1690,-82.9260,77.94,1111122 
COMPS,ioos:station:USF.COMPS:C10:1,2014-08-06T09:05:00Z,27.1690,-82.9260,78.52,1111122 
COMPS,ioos:station:USF.COMPS:C10:1,2014-08-06T09:35:00Z,27.1690,-82.9260,78.26,1111122 
COMPS,ioos:station:USF.COMPS:C10:1,2014-08-06T10:05:00Z,27.1690,-82.9260,77.86,1111122 
COMPS,ioos:station:USF.COMPS:C10:1,2014-08-06T10:35:00Z,27.1690,-82.9260,77.02,1111122 
COMPS,ioos:station:USF.COMPS:C10:1,2014-08-06T11:05:00Z,27.1690,-82.9260,76.68,1111122 
COMPS,ioos:station:USF.COMPS:C10:1,2014-08-06T11:35:00Z,27.1690,-82.9260,76.43,1111122 
COMPS,ioos:station:USF.COMPS:C10:1,2014-08-06T12:05:00Z,27.1690,-82.9260,75.28,1111122 
COMPS,ioos:station:USF.COMPS:C10:1,2014-08-06T12:35:00Z,27.1690,-82.9260,75.37,1111122 
COMPS,ioos:station:USF.COMPS:C10:1,2014-08-06T13:05:00Z,27.1690,-82.9260,75.15,1111122 
COMPS,ioos:station:USF.COMPS:C10:1,2014-08-06T13:35:00Z,27.1690,-82.9260,77.86,1111122 
COMPS,ioos:station:USF.COMPS:C10:1,2014-08-06T14:05:00Z,27.1690,-82.9260,74.86,1111122 
COMPS,ioos:station:USF.COMPS:C10:1,2014-08-06T14:35:00Z,27.1690,-82.9260,75.87,1111122 
COMPS,ioos:station:USF.COMPS:C10:1,2014-08-06T15:05:00Z,27.1690,-82.9260,77.04,1111122 
COMPS,ioos:station:USF.COMPS:C10:1,2014-08-06T15:35:00Z,27.1690,-82.9260,75.34,1111122 
COMPS,ioos:station:USF.COMPS:C10:1,2014-08-06T16:05:00Z,27.1690,-82.9260,74.63,1111122 
COMPS,ioos:station:USF.COMPS:C10:1,2014-08-06T16:35:00Z,27.1690,-82.9260,74.25,1111122 
COMPS,ioos:station:USF.COMPS:C10:1,2014-08-06T17:05:00Z,27.1690,-82.9260,74.84,1111122 
COMPS,ioos:station:USF.COMPS:C10:1,2014-08-06T17:35:00Z,27.1690,-82.9260,74.43,1111122 
COMPS,ioos:station:USF.COMPS:C10:1,2014-08-06T18:05:00Z,27.1690,-82.9260,74.38,1111122 
COMPS,ioos:station:USF.COMPS:C10:1,2014-08-06T18:35:00Z,27.1690,-82.9260,72.49,1111122 
COMPS,ioos:station:USF.COMPS:C10:1,2014-08-06T19:05:00Z,27.1690,-82.9260,73.03,1111122 
COMPS,ioos:station:USF.COMPS:C10:1,2014-08-06T19:35:00Z,27.1690,-82.9260,73.02,1111122 
COMPS,ioos:station:USF.COMPS:C10:1,2014-08-06T20:05:00Z,27.1690,-82.9260,70.92,1111122 
COMPS,ioos:station:USF.COMPS:C10:1,2014-08-06T20:35:00Z,27.1690,-82.9260,67.71,1111122 
COMPS,ioos:station:USF.COMPS:C10:1,2014-08-06T21:05:00Z,27.1690,-82.9260,69.55,1111122 
COMPS,ioos:station:USF.COMPS:C10:1,2014-08-06T21:35:00Z,27.1690,-82.9260,66.81,1111122 
COMPS,ioos:station:USF.COMPS:C10:1,2014-08-06T22:05:00Z,27.1690,-82.9260,68.76,1111122 
COMPS,ioos:station:USF.COMPS:C10:1,2014-08-06T22:35:00Z,27.1690,-82.9260,69.79,1111122 
COMPS,ioos:station:USF.COMPS:C10:1,2014-08-06T23:05:00Z,27.1690,-82.9260,69.44,1111122 
COMPS,ioos:station:USF.COMPS:C10:1,2014-08-06T23:35:00Z,27.1690,-82.9260,71.18,1111122 
COMPS,ioos:station:USF.COMPS:C10:1,2014-08-07T00:05:00Z,27.1690,-82.9260,71.56,1111122 
COMPS,ioos:station:USF.COMPS:C10:1,2014-08-07T00:35:00Z,27.1690,-82.9260,73.25,1111122 
COMPS,ioos:station:USF.COMPS:C10:1,2014-08-07T01:05:00Z,27.1690,-82.9260,73.76,1111122 
COMPS,ioos:station:USF.COMPS:C10:1,2014-08-07T01:35:00Z,27.1690,-82.9260,71.54,1111122 
COMPS,ioos:station:USF.COMPS:C10:1,2014-08-07T02:05:00Z,27.1690,-82.9260,68.85,1111122 
COMPS,ioos:station:USF.COMPS:C10:1,2014-08-07T02:35:00Z,27.1690,-82.9260,69.27,1111122 
COMPS,ioos:station:USF.COMPS:C10:1,2014-08-07T03:05:00Z,27.1690,-82.9260,68.64,1111122 
COMPS,ioos:station:USF.COMPS:C10:1,2014-08-07T03:35:00Z,27.1690,-82.9260,70.56,1111122 
COMPS,ioos:station:USF.COMPS:C10:1,2014-08-07T04:05:00Z,27.1690,-82.9260,71.35,1111122 
COMPS,ioos:station:USF.COMPS:C10:1,2014-08-07T04:35:00Z,27.1690,-82.9260,72.35,1111122 